Williams, AZ

6:49 PM MST on October 19, 2017 (GMT -0700)
Williams

Weather History for KCMR - October, 2013

Change the Weather History Date:

Wednesday, October 9, 2013

  Actual Average (K40G) Record (K40G)
Temperature  
Mean Temperature 52 °F -  
Max Temperature 59 °F 66 °F 90 °F (1996)
Min Temperature 46 °F 57 °F 53 °F (1996)
Degree Days  
Heating Degree Days 12    
Growing Degree Days 2 (Base 50)    
Moisture  
Dew Point 28 °F    
Average Humidity 42    
Maximum Humidity 62    
Minimum Humidity 25    
Precipitation  
Precipitation 0.00 in - - ()
Sea Level Pressure  
Sea Level Pressure 29.91 in    
Wind  
Wind Speed 19 mph (SSE)    
Max Wind Speed 32 mph    
Max Gust Speed 48 mph    
Visibility 10 miles    
Events      
Averages and records for this station are not official NWS values.
T = Trace of Precipitation, MM = Missing Value Source: NWS Daily Summary

Daily Weather History Graph

Daily Weather History Graph

Search for Another Location

Airport or City:

Trip Planner

Search our weather history database for the weather conditions in past years. The results will help you decide how hot, cold, wet, or windy it might be!

Date:

Astronomy

Oct. 09, 2013 Rise Set
Actual Time 6:30 AM MST 6:01 PM MST
Civil Twilight 6:04 AM MST 6:26 PM MST
Nautical Twilight 5:35 AM MST 6:55 PM MST
Astronomical Twilight 5:05 AM MST 7:25 PM MST
Moon 11:20 AM MST (10/9) 9:47 PM MST (10/9)
Length of Visible Light 12h 21m
Length of Day
11h 30m
Waxing Crescent, 26% of the Moon is Illuminated
Oct 9
Waxing Crescent
Oct 11
First Quarter
Oct 18
Full
Oct 26
Last Quarter
Nov 3
New

Hourly Weather History & Observations

Time (MST) Temp. Windchill Dew Point Humidity Pressure Visibility Wind Dir Wind Speed Gust Speed Precip Events Conditions
12:15 AM 53.6 °F - 28.4 °F 38% 29.99 in 10.0 mi South 13.8 mph 25.3 mph N/A   Clear
12:35 AM 53.6 °F - 28.4 °F 38% 29.99 in 10.0 mi South 13.8 mph 17.3 mph N/A   Clear
12:55 AM 51.8 °F - 28.4 °F 41% 29.99 in 10.0 mi South 13.8 mph 20.7 mph N/A   Clear
1:15 AM 51.8 °F - 28.4 °F 41% 29.98 in 10.0 mi South 17.3 mph 26.5 mph N/A   Clear
1:35 AM 51.8 °F - 28.4 °F 41% 29.98 in 10.0 mi South 15.0 mph 23.0 mph N/A   Clear
1:55 AM 51.8 °F - 30.2 °F 44% 29.97 in 10.0 mi South 17.3 mph 23.0 mph N/A   Clear
2:15 AM 51.8 °F - 28.4 °F 41% 29.97 in 10.0 mi South 16.1 mph 19.6 mph N/A   Clear
2:35 AM 51.8 °F - 28.4 °F 41% 29.95 in 10.0 mi South 17.3 mph 25.3 mph N/A   Clear
2:55 AM 50.0 °F - 26.6 °F 40% 29.95 in 10.0 mi South 16.1 mph 25.3 mph N/A   Clear
3:15 AM 51.8 °F - 24.8 °F 35% 29.94 in 10.0 mi South 18.4 mph 27.6 mph N/A   Clear
3:35 AM 50.0 °F - 24.8 °F 37% 29.95 in 10.0 mi South 15.0 mph 25.3 mph N/A   Clear
3:55 AM 50.0 °F - 26.6 °F 40% 29.94 in 10.0 mi South 11.5 mph 21.9 mph N/A   Clear
4:15 AM 50.0 °F - 26.6 °F 40% 29.94 in 10.0 mi SSE 16.1 mph 21.9 mph N/A   Clear
4:35 AM 48.2 °F - 26.6 °F 43% 29.93 in 10.0 mi SSE 13.8 mph - N/A   Clear
4:55 AM 48.2 °F - 26.6 °F 43% 29.92 in 10.0 mi South 12.7 mph 20.7 mph N/A   Clear
5:15 AM 48.2 °F - 26.6 °F 43% 29.92 in 10.0 mi South 15.0 mph 20.7 mph N/A   Clear
5:35 AM 46.4 °F 40.1 °F 24.8 °F 43% 29.92 in 10.0 mi South 15.0 mph 23.0 mph N/A   Clear
5:55 AM 46.4 °F 39.5 °F 24.8 °F 43% 29.90 in 10.0 mi SSE 17.3 mph 24.2 mph N/A   Clear
6:15 AM 48.2 °F - 24.8 °F 40% 29.90 in 10.0 mi SSE 24.2 mph 33.4 mph N/A   Clear
6:35 AM 46.4 °F 38.7 °F 24.8 °F 43% 29.89 in 10.0 mi SSE 20.7 mph 32.2 mph N/A   Clear
6:55 AM 46.4 °F 39.5 °F 24.8 °F 43% 29.89 in 10.0 mi SSE 17.3 mph 28.8 mph N/A   Clear
7:15 AM 48.2 °F - 24.8 °F 40% 29.90 in 10.0 mi SSE 23.0 mph 32.2 mph N/A   Clear
7:35 AM 48.2 °F - 26.6 °F 43% 29.90 in 10.0 mi SSE 27.6 mph 34.5 mph N/A   Clear
7:55 AM 50.0 °F - 26.6 °F 40% 29.91 in 10.0 mi SSE 26.5 mph 34.5 mph N/A   Clear
8:15 AM 50.0 °F - 26.6 °F 40% 29.92 in 10.0 mi SSE 23.0 mph 34.5 mph N/A   Clear
8:35 AM 51.8 °F - 26.6 °F 38% 29.92 in 10.0 mi SSE 21.9 mph 36.8 mph N/A   Clear
8:55 AM 53.6 °F - 24.8 °F 33% 29.92 in 10.0 mi SSE 27.6 mph 35.7 mph N/A   Clear
9:15 AM 53.6 °F - 24.8 °F 33% 29.92 in 10.0 mi SSE 25.3 mph 35.7 mph N/A   Clear
9:35 AM 53.6 °F - 24.8 °F 33% 29.92 in 10.0 mi SSE 26.5 mph 34.5 mph N/A   Clear
9:55 AM 53.6 °F - 24.8 °F 33% 29.93 in 10.0 mi South 23.0 mph 35.7 mph N/A   Clear
10:15 AM 55.4 °F - 24.8 °F 31% 29.93 in 10.0 mi SSE 23.0 mph 34.5 mph N/A   Clear
10:35 AM 55.4 °F - 24.8 °F 31% 29.93 in 10.0 mi SSE 26.5 mph 36.8 mph N/A   Clear
10:55 AM 55.4 °F - 23.0 °F 29% 29.92 in 10.0 mi SSE 29.9 mph 38.0 mph N/A   Clear
11:15 AM 55.4 °F - 23.0 °F 29% 29.92 in 10.0 mi SSE 32.2 mph 46.0 mph N/A   Clear
11:35 AM 55.4 °F - 21.2 °F 26% 29.92 in 10.0 mi SSE 31.1 mph 41.4 mph N/A   Clear
11:55 AM 57.2 °F - 23.0 °F 27% 29.91 in 10.0 mi SSE 27.6 mph 39.1 mph N/A   Clear
12:15 PM 59.0 °F - 23.0 °F 25% 29.91 in 10.0 mi South 32.2 mph 48.3 mph N/A   Clear
12:35 PM 57.2 °F - 23.0 °F 27% 29.91 in 10.0 mi SSE 32.2 mph 39.1 mph N/A   Clear
12:55 PM 57.2 °F - 23.0 °F 27% 29.90 in 10.0 mi SSE 26.5 mph 39.1 mph N/A   Clear
1:15 PM 59.0 °F - 24.8 °F 27% 29.89 in 10.0 mi SSE 24.2 mph 40.3 mph N/A   Clear
1:35 PM 57.2 °F - 24.8 °F 29% 29.89 in 10.0 mi South 18.4 mph 27.6 mph N/A   Clear
1:55 PM 57.2 °F - 24.8 °F 29% 29.88 in 10.0 mi South 20.7 mph 34.5 mph N/A   Partly Cloudy
2:15 PM 57.2 °F - 26.6 °F 31% 29.89 in 10.0 mi South 20.7 mph 33.4 mph N/A   Partly Cloudy
2:35 PM 55.4 °F - 28.4 °F 36% 29.89 in 10.0 mi South 18.4 mph 36.8 mph N/A   Partly Cloudy
2:55 PM 55.4 °F - 28.4 °F 36% 29.88 in 10.0 mi SSE 24.2 mph 33.4 mph N/A   Partly Cloudy
3:15 PM 55.4 °F - 28.4 °F 36% 29.89 in 10.0 mi SSE 26.5 mph 35.7 mph N/A   Clear
3:35 PM 53.6 °F - 28.4 °F 38% 29.89 in 10.0 mi SSE 26.5 mph 36.8 mph N/A   Partly Cloudy
3:55 PM 53.6 °F - 30.2 °F 41% 29.89 in 10.0 mi SSE 21.9 mph 31.1 mph N/A   Scattered Clouds
4:15 PM 53.6 °F - 32.0 °F 44% 29.89 in 10.0 mi SSE 19.6 mph 31.1 mph N/A   Partly Cloudy
4:35 PM 53.6 °F - 32.0 °F 44% 29.88 in 10.0 mi South 24.2 mph 32.2 mph N/A   Partly Cloudy
4:55 PM 53.6 °F - 30.2 °F 41% 29.88 in 10.0 mi South 18.4 mph 36.8 mph N/A   Partly Cloudy
5:15 PM 51.8 °F - 30.2 °F 44% 29.89 in 10.0 mi South 20.7 mph 33.4 mph N/A   Clear
5:35 PM 51.8 °F - 32.0 °F 47% 29.88 in 10.0 mi SSE 23.0 mph 28.8 mph N/A   Clear
5:55 PM 51.8 °F - 33.8 °F 50% 29.88 in 10.0 mi South 25.3 mph 33.4 mph N/A   Clear
6:15 PM 50.0 °F - 35.6 °F 58% 29.87 in 10.0 mi South 16.1 mph 29.9 mph N/A   Clear
6:35 PM 50.0 °F - 35.6 °F 58% 29.87 in 10.0 mi South 16.1 mph 28.8 mph N/A   Partly Cloudy
6:55 PM 50.0 °F - 35.6 °F 58% 29.87 in 10.0 mi SSW 16.1 mph 25.3 mph N/A   Scattered Clouds
7:15 PM 50.0 °F - 35.6 °F 58% 29.88 in 10.0 mi South 13.8 mph 23.0 mph N/A   Mostly Cloudy
7:35 PM 50.0 °F - 35.6 °F 58% 29.87 in 10.0 mi South 17.3 mph 32.2 mph N/A   Scattered Clouds
7:55 PM 50.0 °F - 33.8 °F 54% 29.87 in 10.0 mi South 17.3 mph 31.1 mph N/A   Mostly Cloudy
8:15 PM 50.0 °F - 33.8 °F 54% 29.87 in 10.0 mi South 24.2 mph 29.9 mph N/A   Overcast
8:35 PM 50.0 °F - 33.8 °F 54% 29.88 in 10.0 mi South 19.6 mph 33.4 mph N/A   Mostly Cloudy
8:55 PM 48.2 °F - 33.8 °F 58% 29.88 in 10.0 mi South 21.9 mph 29.9 mph N/A   Mostly Cloudy
9:15 PM 48.2 °F - 32.0 °F 54% 29.87 in 10.0 mi South 19.6 mph 32.2 mph N/A   Scattered Clouds
9:35 PM 48.2 °F - 32.0 °F 54% 29.87 in 10.0 mi South 20.7 mph 25.3 mph N/A   Scattered Clouds
9:55 PM 48.2 °F - 32.0 °F 54% 29.87 in 10.0 mi South 19.6 mph 32.2 mph N/A   Partly Cloudy
10:15 PM 48.2 °F - 32.0 °F 54% 29.87 in 10.0 mi SSE 19.6 mph 24.2 mph N/A   Partly Cloudy
10:35 PM 48.2 °F - 32.0 °F 54% 29.87 in 10.0 mi South 17.3 mph 27.6 mph N/A   Scattered Clouds
10:55 PM 48.2 °F - 33.8 °F 58% 29.87 in 10.0 mi South 15.0 mph 24.2 mph N/A   Mostly Cloudy
11:15 PM 46.4 °F 40.4 °F 33.8 °F 62% 29.87 in 10.0 mi SSE 13.8 mph 24.2 mph N/A   Mostly Cloudy
11:35 PM 46.4 °F 38.3 °F 32.0 °F 57% 29.86 in 10.0 mi SSE 23.0 mph 38.0 mph N/A   Scattered Clouds
11:55 PM 46.4 °F 40.4 °F 32.0 °F 57% 29.86 in 10.0 mi South 13.8 mph 28.8 mph N/A   Mostly Cloudy